GW7081 Weather Reports


time (UTC)temp
C
wind
direction
speed
KPH
gust
KPH
rain 1hr
cm
rain 24hr
cm
rain mn
cm
humidity
%
barometer
mb
20260510081534 8 292 0.0 0.0 0.00 0.00 0.00 93 1017.0
20260510080027 8 293 0.0 0.0 0.00 0.00 0.00 93 1017.1
20260510074504 8 292 0.0 0.0 0.00 0.00 0.00 92 1017.0
20260510073008 9 292 0.0 0.0 0.00 0.00 0.00 92 1016.8
20260510071515 9 292 0.0 0.0 0.00 0.00 0.00 92 1016.8
20260510070023 9 292 0.0 0.0 0.00 0.00 0.00 92 1016.7
20260510064525 10 292 0.0 0.0 0.00 0.00 0.00 90 1016.7
20260510063008 10 293 0.0 0.0 0.00 0.00 0.00 91 1016.7
20260510061514 10 292 0.0 0.0 0.00 0.00 0.00 90 1016.7
20260510060033 11 292 0.0 0.0 0.00 0.00 0.00 89 1016.6
20260510054524 11 292 0.0 0.0 0.00 0.00 0.00 89 1016.6
20260510053036 11 292 0.0 0.0 0.00 0.00 0.00 88 1016.6
20260510051509 12 293 0.0 0.0 0.00 0.00 0.00 87 1016.7
20260510050012 12 293 0.0 0.0 0.00 0.00 0.00 85 1016.7
20260510044533 12 292 0.0 0.0 0.00 0.00 0.00 84 1016.5
20260510043024 13 292 0.0 0.0 0.00 0.00 0.00 83 1016.4
20260510041523 14 292 0.0 0.0 0.00 0.00 0.00 82 1016.3
20260510040015 15 292 0.0 1.6 0.00 0.00 0.00 80 1016.3
20260510034516 15 293 0.0 0.0 0.00 0.00 0.00 77 1016.0
20260510033020 16 293 0.0 0.0 0.00 0.00 0.00 75 1016.1
20260510031524 17 293 0.0 1.6 0.00 0.00 0.00 73 1016.1
20260510030026 18 293 0.0 1.6 0.00 0.00 0.00 68 1015.9
20260510024512 19 293 0.0 0.0 0.00 0.00 0.00 63 1015.9
20260510023016 20 292 0.0 1.6 0.00 0.00 0.00 62 1015.8
20260510021522 20 293 0.0 1.6 0.00 0.00 0.00 58 1015.8
20260510020027 21 293 0.0 1.6 0.00 0.00 0.00 54 1015.9
20260510014531 21 282 1.6 4.8 0.00 0.00 0.00 53 1016.0
20260510013016 21 287 0.0 4.8 0.00 0.00 0.00 52 1016.1
20260510011520 22 279 0.0 3.2 0.00 0.00 0.00 51 1016.2
20260510010027 22 270 0.0 8.0 0.00 0.00 0.00 50 1016.3
20260510004524 22 278 0.0 4.8 0.00 0.00 0.00 49 1016.6
20260510003012 22 293 3.2 8.0 0.00 0.00 0.00 47 1016.6
20260510001517 23 351 3.2 9.7 0.00 0.00 0.00 47 1016.8
20260510000020 23 44 1.6 11.3 0.00 0.00 0.00 46 1016.9
20260509234511 23 282 1.6 8.0 0.00 0.00 0.00 46 1017.0
20260509233010 24 35 3.2 12.9 0.00 0.00 0.00 45 1017.1
20260509231519 23 286 1.6 8.0 0.00 0.00 0.00 46 1017.3
20260509230022 23 24 1.6 8.0 0.00 0.00 0.00 45 1017.4
20260509224521 23 359 0.0 4.8 0.00 0.00 0.00 43 1017.6
20260509223010 23 252 1.6 11.3 0.00 0.00 0.00 43 1017.7
20260509221514 23 284 4.8 11.3 0.00 0.00 0.00 43 1018.1
20260509220019 23 19 1.6 6.4 0.00 0.00 0.00 46 1018.3
20260509214524 23 288 3.2 6.4 0.00 0.00 0.00 44 1018.4
20260509213026 23 324 1.6 6.4 0.00 0.00 0.00 47 1018.6
20260509211510 23 351 1.6 4.8 0.00 0.00 0.00 48 1018.7
20260509210019 22 300 3.2 8.0 0.00 0.00 0.00 50 1018.9
20260509204517 22 294 0.0 3.2 0.00 0.00 0.00 51 1018.8
20260509203028 22 321 1.6 8.0 0.00 0.00 0.00 49 1019.0
20260509201526 22 346 1.6 9.7 0.00 0.00 0.00 49 1019.0
20260509200014 22 255 1.6 6.4 0.00 0.00 0.00 50 1019.3
20260509194516 22 228 1.6 4.8 0.00 0.00 0.00 49 1019.5
20260509193020 21 309 1.6 6.4 0.00 0.00 0.00 50 1019.7
20260509191525 21 5 1.6 6.4 0.00 0.00 0.00 53 1020.1
20260509190028 20 307 1.6 8.0 0.00 0.00 0.00 54 1020.2
20260509184515 20 340 0.0 8.0 0.00 0.00 0.00 55 1020.5
20260509183020 19 356 1.6 9.7 0.00 0.00 0.00 57 1020.7
20260509181521 19 196 1.6 4.8 0.00 0.00 0.00 60 1020.9
20260509180028 18 257 1.6 6.4 0.00 0.00 0.00 61 1020.8
20260509174529 18 298 0.0 6.4 0.00 0.00 0.00 62 1021.0
20260509173020 17 217 1.6 4.8 0.00 0.00 0.00 64 1020.9
20260509171535 17 216 3.2 4.8 0.00 0.00 0.00 67 1021.1
20260509170026 16 302 1.6 3.2 0.00 0.00 0.00 68 1021.4
20260509164528 16 8 1.6 6.4 0.00 0.00 0.00 71 1021.5
20260509163027 15 65 0.0 1.6 0.00 0.00 0.00 74 1021.6
20260509161530 14 65 0.0 3.2 0.00 0.00 0.00 77 1021.7
20260509160022 12 115 0.0 4.8 0.00 0.00 0.00 81 1022.0
20260509154523 12 6 0.0 4.8 0.00 0.00 0.00 82 1022.2
20260509153028 12 172 0.0 1.6 0.00 0.00 0.00 83 1022.1
20260509151526 11 229 0.0 1.6 0.00 0.00 0.00 85 1022.1
20260509150010 10 229 0.0 1.6 0.00 0.00 0.00 87 1022.4
20260509144507 8 229 0.0 0.0 0.00 0.00 0.00 88 1022.5
20260509143008 8 229 0.0 0.0 0.00 0.00 0.00 91 1022.6
20260509141519 6 229 0.0 0.0 0.00 0.00 0.00 95 1022.7
20260509140010 5 229 0.0 0.0 0.00 0.00 0.00 96 1022.5
20260509134513 4 229 0.0 0.0 0.00 0.00 0.00 96 1022.4
20260509133009 4 229 0.0 0.0 0.00 0.00 0.00 95 1022.4
20260509131517 4 229 0.0 0.0 0.00 0.00 0.00 95 1022.4
20260509130013 4 229 0.0 0.0 0.00 0.00 0.00 95 1022.5
20260509124514 4 229 0.0 0.0 0.00 0.00 0.00 95 1022.5
20260509123015 4 229 0.0 0.0 0.00 0.00 0.00 95 1022.7
20260509121517 4 229 0.0 0.0 0.00 0.00 0.00 95 1022.8
20260509120014 5 229 0.0 0.0 0.00 0.00 0.00 95 1022.7
20260509114515 5 229 0.0 0.0 0.00 0.00 0.00 94 1022.7
20260509113018 5 229 0.0 0.0 0.00 0.00 0.00 94 1022.8
20260509111517 5 229 0.0 0.0 0.00 0.00 0.00 95 1023.0
20260509110006 5 229 0.0 0.0 0.00 0.00 0.00 94 1023.1
20260509104529 6 229 0.0 0.0 0.00 0.00 0.00 94 1023.1
20260509103016 6 229 0.0 0.0 0.00 0.00 0.00 94 1023.1
20260509101520 6 229 0.0 0.0 0.00 0.00 0.00 94 1023.2
20260509100029 6 229 0.0 0.0 0.00 0.00 0.00 94 1023.2
20260509094517 6 229 0.0 0.0 0.00 0.00 0.00 93 1023.3
20260509093017 7 229 0.0 0.0 0.00 0.00 0.00 93 1023.4
20260509091519 7 229 0.0 0.0 0.00 0.00 0.00 93 1023.4
20260509090018 8 229 0.0 0.0 0.00 0.00 0.00 92 1023.5
20260509084518 8 229 0.0 0.0 0.00 0.00 0.00 91 1023.5
20260509083016 8 229 0.0 0.0 0.00 0.00 0.00 90 1023.6